Location: Belfast
(54.5830°N, 5.9330°W)
Time: 05:48:37
(UTC+01:00)

ISS - Pass Details

Date: 28 May 2017
Orbit: 400 x 408 km, 51.6° (Epoch: 23 July)

Event Time Altitude Azimuth Distance (km) Brightness Sun altitude
Rises 00:23:43 0° 264° (W) 2,346 0.1 -13.0°
Reaches altitude 10° 00:25:51 10° 259° (W) 1,482 -1.0 -13.0°
Maximum altitude 00:29:05 51° 182° (S) 528 -3.7 -13.1°
Drops below altitude 10° 00:32:18 10° 106° (ESE) 1,475 -1.3 -13.2°
Enters shadow 00:33:40 - 102° (ESE) 2,030 -0.5 -13.3°
